Вернуться в каталог

CZ-6A DEB

АктивенSSO
NORAD 56645·DEBRIS·🇨🇳 China

Запущен Nov 11, 2022 с Taiyuan Satellite Launch Center

Loading…

Ближайшие Пролёты (ближайшие 24 часа)

TLE

УстаревающийSource: Space-Track

Эпоха: Sep 5, 2026, 05:58 UTC

1 56645U 22151AFV 26248.24861780  .00000908  00000-0  45172-3 0  9994
2 56645  98.8037 254.6128 0042276 110.8287 249.7424 14.19026488174297

Отслеживайте CZ-6A DEB в реальном времени с AllMySat

Download on the App Store